Chehalis, WA
on Sunday, December 9, 2012

Sunday
Previous Day Next Day
Daily Summary
 ActualAverage (KOLM)Record (KOLM)
Temperature
Mean Temperature °F 38°F  
Max Temperature 46°F 45°F 59°F (1993)
Min Temperature 39°F 33°F 6°F (2009)
Degree Days
Heating Degree Days 22 26  
Month to date heating degree days 232  
Since 1 July heating degree days 1677  
Cooling Degree Days 0 0  
Month to date cooling degree days 0  
Year to date cooling degree days 106  
Moisture
Dew Point 40°F   
Average Humidity 93    
Maximum Humidity 100    
Minimum Humidity 87    
Precipitation
Precipitation 0.04 in 0.24 in 3.50 in (1956)
Month to date precipitation 2.43  
Year to date precipitation 44.97  
Wind
Wind Speed 6 mph   
Max Wind Speed 16 mph   
Max Gust Speed 24 mph   
Visibility 6 miles   
Events Rain   

Key: T is trace of precipitation, MM is missing value
Source: NWS Daily Summary
Time(PST)TemperatureDew PointHumidity Pressure Visibility Wind DirectionWind SpeedGust SpeedPrecipitationEvents Conditions
12:15 AM 39.2°F 37.4°F 93% 30.37 in 6.0 miles Calm Calm - N/A   Overcast
12:35 AM 39.2°F 37.4°F 93% 30.36 in 9.0 miles Calm Calm - N/A   Overcast
12:55 AM 39.2°F 37.4°F 93% 30.37 in 8.0 miles Calm Calm - N/A   Overcast
1:15 AM 39.2°F 37.4°F 93% 30.37 in 5.0 miles Calm Calm - N/A   Mostly Cloudy
1:35 AM 39.2°F 37.4°F 93% 30.37 in 5.0 miles Calm Calm - N/A Rain Light Rain
1:55 AM 39.2°F 37.4°F 93% 30.37 in 8.0 miles Calm Calm - N/A Rain Light Rain
2:15 AM 39.2°F 37.4°F 93% 30.38 in 10.0 miles Calm Calm - N/A   Overcast
2:35 AM 39.2°F 37.4°F 93% 30.38 in 10.0 miles SSE 4.6 mph - N/A   Mostly Cloudy
3:15 AM 39.2°F 37.4°F 93% 30.38 in 10.0 miles South 4.6 mph - 0.01 in   Overcast
3:35 AM 39.2°F 37.4°F 93% 30.38 in 10.0 miles SSE 4.6 mph - 0.01 in   Overcast
3:55 AM 39.2°F 37.4°F 93% 30.38 in 10.0 miles South 6.9 mph - 0.01 in   Overcast
4:15 AM 39.2°F 37.4°F 93% 30.37 in 10.0 miles South 6.9 mph - N/A   Overcast
4:35 AM 39.2°F 37.4°F 93% 30.38 in 10.0 miles South 4.6 mph - N/A   Mostly Cloudy
4:55 AM 39.2°F 37.4°F 93% 30.39 in 7.0 miles South 6.9 mph - N/A   Overcast
5:15 AM 39.2°F 37.4°F 93% 30.38 in 7.0 miles SSW 5.8 mph - N/A   Overcast
5:35 AM 39.2°F 37.4°F 93% 30.37 in 7.0 miles SSW 8.1 mph - N/A   Overcast
5:55 AM 39.2°F 37.4°F 93% 30.36 in 10.0 miles South 5.8 mph - N/A   Overcast
6:15 AM 39.2°F 37.4°F 93% 30.37 in 7.0 miles South 4.6 mph - N/A   Overcast
6:35 AM 39.2°F 37.4°F 93% 30.38 in 9.0 miles South 8.1 mph - N/A   Overcast
6:55 AM 39.2°F 37.4°F 93% 30.38 in 7.0 miles South 5.8 mph - N/A   Overcast
7:15 AM 39.2°F 37.4°F 93% 30.38 in 7.0 miles SSW 6.9 mph - N/A   Overcast
7:35 AM 39.2°F 37.4°F 93% 30.38 in 7.0 miles SSW 4.6 mph - N/A   Overcast
7:55 AM 39.2°F 37.4°F 93% 30.38 in 7.0 miles South 6.9 mph - N/A   Overcast
8:15 AM 39.2°F 37.4°F 93% 30.37 in 4.0 miles South 6.9 mph - N/A   Overcast
8:35 AM 39.2°F 37.4°F 93% 30.36 in 3.0 miles South 6.9 mph - N/A   Overcast
8:55 AM 39.2°F 37.4°F 93% 30.36 in 3.0 miles South 6.9 mph - N/A   Overcast
9:15 AM 39.2°F 39.2°F 100% 30.37 in 7.0 miles South 8.1 mph - N/A   Overcast
9:35 AM 41.0°F 39.2°F 93% 30.38 in 4.0 miles South 8.1 mph - N/A   Overcast
9:55 AM 41.0°F 39.2°F 93% 30.36 in 10.0 miles South 8.1 mph - N/A   Overcast
10:15 AM 41.0°F 39.2°F 93% 30.36 in 7.0 miles South 8.1 mph - N/A   Overcast
10:35 AM 41.0°F 39.2°F 93% 30.37 in 5.0 miles South 8.1 mph - N/A   Overcast
10:55 AM 41.0°F 39.2°F 93% 30.36 in 5.0 miles South 10.4 mph - N/A   Overcast
11:15 AM 41.0°F 39.2°F 93% 30.35 in 5.0 miles South 11.5 mph - N/A   Overcast
11:35 AM 42.8°F 39.2°F 87% 30.34 in 8.0 miles South 13.8 mph - N/A   Overcast
11:55 AM 42.8°F 41.0°F 93% 30.33 in 5.0 miles South 12.7 mph 17.3 mph N/A   Overcast
12:15 PM 44.6°F 41.0°F 87% 30.33 in 5.0 miles South 12.7 mph 17.3 mph N/A   Mostly Cloudy
12:35 PM 44.6°F 41.0°F 87% 30.32 in 4.0 miles South 11.5 mph 17.3 mph N/A   Mostly Cloudy
1:15 PM 44.6°F 41.0°F 87% 30.32 in 1.5 miles South 10.4 mph 18.4 mph N/A   Overcast
1:35 PM 44.6°F 42.8°F 93% 30.30 in 1.8 miles South 13.8 mph 20.7 mph 0.01 in Rain Light Rain
2:15 PM 44.6°F 41.0°F 87% 30.30 in 9.0 miles South 16.1 mph 24.2 mph N/A   Overcast
2:35 PM 44.6°F 41.0°F 87% 30.29 in 8.0 miles South 12.7 mph 20.7 mph N/A   Overcast
2:55 PM 44.6°F 41.0°F 87% 30.29 in 8.0 miles South 15.0 mph 24.2 mph N/A   Overcast
3:15 PM 44.6°F 41.0°F 87% 30.29 in 5.0 miles South 12.7 mph 24.2 mph N/A   Overcast
3:35 PM 44.6°F 41.0°F 87% 30.29 in 3.0 miles South 16.1 mph 20.7 mph N/A   Overcast
3:55 PM 44.6°F 41.0°F 87% 30.30 in 5.0 miles South 13.8 mph 20.7 mph N/A   Overcast
4:15 PM 44.6°F 42.8°F 93% 30.30 in 9.0 miles South 12.7 mph 18.4 mph N/A   Overcast
4:35 PM 44.6°F 42.8°F 93% 30.31 in 1.8 miles South 12.7 mph 20.7 mph N/A Rain Light Rain
4:55 PM 44.6°F 42.8°F 93% 30.32 in 2.5 miles South 11.5 mph - N/A   Overcast
5:15 PM 44.6°F 42.8°F 93% 30.31 in 3.0 miles South 10.4 mph 16.1 mph N/A   Overcast
5:35 PM 44.6°F 42.8°F 93% 30.30 in 3.0 miles South 12.7 mph 19.6 mph N/A   Overcast
5:55 PM 44.6°F 42.8°F 93% 30.31 in 3.0 miles South 12.7 mph 19.6 mph N/A   Overcast
6:15 PM 44.6°F 42.8°F 93% 30.32 in 3.0 miles South 9.2 mph - N/A   Overcast
6:35 PM 44.6°F 42.8°F 93% 30.33 in 2.0 miles South 8.1 mph - 0.01 in Rain Light Rain
6:55 PM 44.6°F 42.8°F 93% 30.33 in 2.5 miles South 9.2 mph - 0.01 in   Overcast
7:15 PM 44.6°F 42.8°F 93% 30.32 in 3.0 miles South 10.4 mph - N/A   Overcast
7:35 PM 44.6°F 42.8°F 93% 30.33 in 5.0 miles South 10.4 mph - 0.01 in   Overcast
7:55 PM 44.6°F 42.8°F 93% 30.32 in 5.0 miles South 11.5 mph 17.3 mph 0.01 in   Overcast
8:15 PM 44.6°F 42.8°F 93% 30.32 in 5.0 miles South 10.4 mph 17.3 mph N/A   Overcast
8:35 PM 44.6°F 44.6°F 100% 30.33 in 6.0 miles South 5.8 mph - N/A   Overcast
8:55 PM 44.6°F 44.6°F 100% 30.33 in 6.0 miles South 5.8 mph - N/A   Overcast
9:15 PM 44.6°F 44.6°F 100% 30.34 in 4.0 miles South 6.9 mph - N/A   Overcast
9:35 PM 44.6°F 44.6°F 100% 30.34 in 3.0 miles South 6.9 mph - N/A   Overcast
9:55 PM 44.6°F 44.6°F 100% 30.33 in 3.0 miles South 9.2 mph - N/A   Overcast
10:15 PM 44.6°F 44.6°F 100% 30.34 in 4.0 miles South 9.2 mph - N/A   Overcast
10:35 PM 44.6°F 44.6°F 100% 30.35 in 7.0 miles South 5.8 mph - N/A   Overcast
10:55 PM 44.6°F 44.6°F 100% 30.35 in 3.0 miles South 6.9 mph - N/A   Overcast
11:15 PM 46.4°F 44.6°F 93% 30.36 in 1.8 miles SSW 5.8 mph - N/A   Overcast
11:35 PM 46.4°F 44.6°F 93% 30.38 in 1.8 miles South 4.6 mph - N/A   Overcast
11:55 PM 44.6°F 44.6°F 100% 30.38 in 2.5 miles South 5.8 mph - N/A   Overcast
Moon Phase
Dec. 09 Dec. 13 Dec. 20 Dec. 28 Jan. 04
Sunrise:07:45 AM (PST) Moon Rise:03:13 AM (PST)12/9
Sunset:04:24 PM (PST) Moon Set:01:44 PM (PST)12/9

Copyright © 2014 The Weather Underground, Inc.